Time,TemperatureF,DewpointF,PressureIn,WindDirection,WindDirectionDegrees,WindSpeedMPH,WindSpeedGustMPH,Humidity,HourlyPrecipIn,Conditions,Clouds,dailyrainin,SoftwareType,DateUTC
2013-01-15 00:00:00,69.5,64.5,30.16,SE,141,0.0,1.0,84,0.00,,SCT024,0.00,VWS V14.01,2013-01-15 05:00:00,
2013-01-15 00:05:00,69.4,64.4,30.16,SE,140,0.0,0.0,84,0.00,,FEW024,0.00,VWS V14.01,2013-01-15 05:05:00,
2013-01-15 00:10:00,69.2,64.2,30.17,SE,144,0.0,0.0,84,0.00,,FEW024,0.00,VWS V14.01,2013-01-15 05:10:00,
2013-01-15 00:15:00,69.0,64.3,30.16,SE,141,0.0,0.0,85,0.00,,FEW024,0.00,VWS V14.01,2013-01-15 05:15:00,
2013-01-15 00:20:00,68.9,64.2,30.16,SE,140,0.0,0.0,85,0.00,,FEW024,0.00,VWS V14.01,2013-01-15 05:20:00,
2013-01-15 00:25:00,68.7,64.0,30.16,SE,138,0.0,0.0,85,0.00,,FEW024,0.00,VWS V14.01,2013-01-15 05:25:00,
2013-01-15 00:31:00,68.6,64.2,30.16,SE,138,0.0,0.0,86,0.00,,FEW024,0.00,VWS V14.01,2013-01-15 05:31:00,
2013-01-15 00:36:00,68.4,63.7,30.16,SE,139,0.0,0.0,85,0.00,,FEW024,0.00,VWS V14.01,2013-01-15 05:36:00,
2013-01-15 00:41:00,68.3,64.0,30.16,SE,137,0.0,0.0,86,0.00,,FEW024,0.00,VWS V14.01,2013-01-15 05:41:00,
2013-01-15 00:46:00,68.1,63.8,30.16,SE,138,0.0,0.0,86,0.00,,FEW024,0.00,VWS V14.01,2013-01-15 05:46:00,
2013-01-15 00:51:00,68.0,63.7,30.16,SE,138,0.0,0.0,86,0.00,,FEW024,0.00,VWS V14.01,2013-01-15 05:51:00,
2013-01-15 00:56:00,67.7,63.0,30.16,SE,138,0.0,0.0,85,0.00,,FEW024,0.00,VWS V14.01,2013-01-15 05:56:00,
2013-01-15 01:01:00,67.5,62.8,30.15,SE,138,0.0,0.0,85,0.00,,CLR,0.00,VWS V14.01,2013-01-15 06:01:00,
2013-01-15 01:06:00,67.3,62.6,30.16,SE,138,0.0,0.0,85,0.00,,CLR,0.00,VWS V14.01,2013-01-15 06:06:00,
2013-01-15 01:11:00,67.1,62.8,30.16,SE,137,0.0,0.0,86,0.00,,CLR,0.00,VWS V14.01,2013-01-15 06:11:00,
2013-01-15 01:16:00,67.0,62.7,30.15,SE,135,0.0,0.0,86,0.00,,CLR,0.00,VWS V14.01,2013-01-15 06:16:00,
2013-01-15 01:21:00,66.8,62.5,30.15,SE,136,0.0,0.0,86,0.00,,CLR,0.00,VWS V14.01,2013-01-15 06:21:00,
2013-01-15 01:26:00,66.7,62.4,30.15,SE,144,0.0,0.0,86,0.00,,CLR,0.00,VWS V14.01,2013-01-15 06:26:00,
2013-01-15 01:31:00,66.6,62.0,30.15,SE,144,0.0,0.0,85,0.00,,CLR,0.00,VWS V14.01,2013-01-15 06:31:00,
2013-01-15 01:36:00,66.5,62.2,30.15,SE,142,0.0,0.0,86,0.00,,CLR,0.00,VWS V14.01,2013-01-15 06:36:00,
2013-01-15 01:41:00,66.4,62.1,30.15,SE,139,0.0,0.0,86,0.00,,CLR,0.00,VWS V14.01,2013-01-15 06:41:00,
2013-01-15 01:46:00,66.3,62.0,30.15,SE,139,0.0,0.0,86,0.00,,CLR,0.00,VWS V14.01,2013-01-15 06:46:00,
2013-01-15 01:51:00,66.1,61.8,30.14,SE,139,0.0,0.0,86,0.00,,CLR,0.00,VWS V14.01,2013-01-15 06:51:00,
2013-01-15 01:56:00,66.1,61.8,30.14,SE,141,0.0,0.0,86,0.00,,CLR,0.00,VWS V14.01,2013-01-15 06:56:00,
2013-01-15 02:01:00,66.0,61.7,30.15,SE,141,0.0,0.0,86,0.00,,FEW024,0.00,VWS V14.01,2013-01-15 07:01:00,
2013-01-15 02:06:00,65.8,61.8,30.15,SE,140,0.0,0.0,87,0.00,,FEW024,0.00,VWS V14.01,2013-01-15 07:06:00,
2013-01-15 02:11:00,65.7,61.7,30.15,SE,140,0.0,0.0,87,0.00,,FEW024,0.00,VWS V14.01,2013-01-15 07:11:00,
2013-01-15 02:16:00,65.6,61.6,30.15,SE,137,0.0,0.0,87,0.00,,FEW024,0.00,VWS V14.01,2013-01-15 07:16:00,
2013-01-15 02:21:00,65.4,61.4,30.15,SE,139,0.0,0.0,87,0.00,,FEW024,0.00,VWS V14.01,2013-01-15 07:21:00,
2013-01-15 02:26:00,65.4,61.4,30.14,SE,139,0.0,0.0,87,0.00,,FEW024,0.00,VWS V14.01,2013-01-15 07:26:00,
2013-01-15 02:31:00,65.2,61.2,30.14,SE,139,0.0,0.0,87,0.00,,FEW024,0.00,VWS V14.01,2013-01-15 07:31:00,
2013-01-15 02:36:00,65.2,61.2,30.14,SE,141,0.0,0.0,87,0.00,,FEW024,0.00,VWS V14.01,2013-01-15 07:36:00,
2013-01-15 02:41:00,65.2,61.6,30.14,SE,140,0.0,0.0,88,0.00,,FEW024,0.00,VWS V14.01,2013-01-15 07:41:00,
2013-01-15 02:46:00,65.1,61.5,30.14,SE,141,0.0,0.0,88,0.00,,FEW024,0.00,VWS V14.01,2013-01-15 07:46:00,
2013-01-15 02:51:00,65.0,61.4,30.14,SE,139,0.0,0.0,88,0.00,,FEW024,0.00,VWS V14.01,2013-01-15 07:51:00,
2013-01-15 02:56:00,65.0,61.4,30.13,SE,137,0.0,0.0,88,0.00,,FEW024,0.00,VWS V14.01,2013-01-15 07:56:00,
2013-01-15 03:01:00,64.9,61.3,30.14,SE,139,0.0,0.0,88,0.00,,SCT034,0.00,VWS V14.01,2013-01-15 08:01:00,
2013-01-15 03:06:00,64.8,61.2,30.14,SE,139,0.0,0.0,88,0.00,,SCT034,0.00,VWS V14.01,2013-01-15 08:06:00,
2013-01-15 03:11:00,64.7,61.1,30.13,SE,137,0.0,0.0,88,0.00,,SCT034,0.00,VWS V14.01,2013-01-15 08:11:00,
2013-01-15 03:16:00,64.7,61.4,30.14,SE,136,0.0,0.0,89,0.00,,SCT034,0.00,VWS V14.01,2013-01-15 08:16:00,
2013-01-15 03:21:00,64.6,61.3,30.14,SE,137,0.0,0.0,89,0.00,,SCT034,0.00,VWS V14.01,2013-01-15 08:21:00,
2013-01-15 03:26:00,64.5,61.2,30.14,SE,139,0.0,0.0,89,0.00,,SCT034,0.00,VWS V14.01,2013-01-15 08:26:00,
2013-01-15 03:31:00,64.5,60.9,30.13,SE,140,0.0,0.0,88,0.00,,SCT034,0.00,VWS V14.01,2013-01-15 08:31:00,
2013-01-15 03:36:00,64.4,60.8,30.13,SE,140,0.0,0.0,88,0.00,,SCT034,0.00,VWS V14.01,2013-01-15 08:36:00,
2013-01-15 03:41:00,64.3,61.0,30.13,SE,140,0.0,0.0,89,0.00,,SCT034,0.00,VWS V14.01,2013-01-15 08:41:00,
2013-01-15 03:46:00,64.3,61.0,30.13,SE,140,0.0,0.0,89,0.00,,SCT034,0.00,VWS V14.01,2013-01-15 08:46:00,
2013-01-15 03:51:00,64.3,61.0,30.13,SE,141,0.0,0.0,89,0.00,,SCT034,0.00,VWS V14.01,2013-01-15 08:51:00,
2013-01-15 03:56:00,64.3,61.0,30.13,SE,140,0.0,0.0,89,0.00,,SCT034,0.00,VWS V14.01,2013-01-15 08:56:00,
2013-01-15 04:01:00,64.3,61.3,30.13,SE,140,0.0,0.0,90,0.00,,CLR,0.00,VWS V14.01,2013-01-15 09:01:00,
2013-01-15 04:06:00,64.3,61.3,30.13,SE,139,0.0,0.0,90,0.00,,CLR,0.00,VWS V14.01,2013-01-15 09:06:00,
2013-01-15 04:11:00,64.3,61.3,30.13,SE,138,0.0,0.0,90,0.00,,CLR,0.00,VWS V14.01,2013-01-15 09:11:00,
2013-01-15 04:16:00,64.3,61.0,30.12,SE,138,0.0,0.0,89,0.00,,CLR,0.00,VWS V14.01,2013-01-15 09:16:00,
2013-01-15 04:21:00,64.2,60.9,30.12,SE,139,0.0,0.0,89,0.00,,CLR,0.00,VWS V14.01,2013-01-15 09:21:00,
2013-01-15 04:26:00,64.2,60.9,30.12,SE,139,0.0,0.0,89,0.00,,CLR,0.00,VWS V14.01,2013-01-15 09:26:00,
2013-01-15 04:31:00,64.1,60.8,30.12,SE,138,0.0,0.0,89,0.00,,CLR,0.00,VWS V14.01,2013-01-15 09:31:00,
2013-01-15 04:36:00,64.0,60.4,30.12,SE,140,0.0,0.0,88,0.00,,CLR,0.00,VWS V14.01,2013-01-15 09:36:00,
2013-01-15 04:41:00,64.0,60.7,30.12,SE,139,0.0,0.0,89,0.00,,CLR,0.00,VWS V14.01,2013-01-15 09:41:00,
2013-01-15 04:46:00,64.0,60.7,30.13,SE,138,0.0,0.0,89,0.00,,CLR,0.00,VWS V14.01,2013-01-15 09:46:00,
2013-01-15 04:51:00,63.9,60.3,30.12,SE,141,0.0,0.0,88,0.00,,CLR,0.00,VWS V14.01,2013-01-15 09:51:00,
2013-01-15 04:56:00,63.9,60.6,30.12,SE,136,0.0,0.0,89,0.00,,CLR,0.00,VWS V14.01,2013-01-15 09:56:00,
2013-01-15 05:01:00,63.8,60.8,30.12,SE,137,0.0,0.0,90,0.00,,CLR,0.00,VWS V14.01,2013-01-15 10:01:00,
2013-01-15 05:06:00,63.7,60.1,30.12,SE,141,0.0,0.0,88,0.00,,CLR,0.00,VWS V14.01,2013-01-15 10:06:00,
2013-01-15 05:11:00,63.7,60.1,30.12,SE,143,0.0,0.0,88,0.00,,CLR,0.00,VWS V14.01,2013-01-15 10:11:00,
2013-01-15 05:16:00,63.7,60.1,30.12,SE,143,0.0,0.0,88,0.00,,CLR,0.00,VWS V14.01,2013-01-15 10:16:00,
2013-01-15 05:21:00,63.7,60.7,30.12,SE,137,0.0,0.0,90,0.00,,CLR,0.00,VWS V14.01,2013-01-15 10:21:00,
2013-01-15 05:26:00,63.7,60.7,30.12,SE,140,0.0,0.0,90,0.00,,CLR,0.00,VWS V14.01,2013-01-15 10:26:00,
2013-01-15 05:31:00,63.7,60.4,30.13,SE,144,0.0,0.0,89,0.00,,CLR,0.00,VWS V14.01,2013-01-15 10:31:00,
2013-01-15 05:36:00,63.7,60.4,30.12,SE,144,0.0,0.0,89,0.00,,CLR,0.00,VWS V14.01,2013-01-15 10:36:00,
2013-01-15 05:41:00,63.8,60.5,30.12,SE,144,0.0,0.0,89,0.00,,CLR,0.00,VWS V14.01,2013-01-15 10:41:00,
2013-01-15 05:46:00,63.9,60.9,30.12,SE,144,0.0,0.0,90,0.00,,CLR,0.00,VWS V14.01,2013-01-15 10:46:00,
2013-01-15 05:51:00,64.0,61.3,30.12,SE,144,0.0,0.0,91,0.00,,CLR,0.00,VWS V14.01,2013-01-15 10:51:00,
2013-01-15 05:56:00,63.9,61.2,30.12,SE,144,0.0,0.0,91,0.00,,CLR,0.00,VWS V14.01,2013-01-15 10:56:00,
2013-01-15 06:01:00,64.0,61.3,30.12,SE,144,0.0,0.0,91,0.00,,SCT055,0.00,VWS V14.01,2013-01-15 11:01:00,
2013-01-15 06:06:00,64.0,61.6,30.13,SE,144,0.0,0.0,92,0.00,,SCT055,0.00,VWS V14.01,2013-01-15 11:06:00,
2013-01-15 06:11:00,64.1,61.4,30.12,SE,144,0.0,0.0,91,0.00,,SCT055,0.00,VWS V14.01,2013-01-15 11:11:00,
2013-01-15 06:16:00,64.1,61.4,30.12,SE,144,0.0,0.0,91,0.00,,SCT055,0.00,VWS V14.01,2013-01-15 11:16:00,
2013-01-15 06:21:00,64.1,61.4,30.12,SE,144,0.0,0.0,91,0.00,,SCT055,0.00,VWS V14.01,2013-01-15 11:21:00,
2013-01-15 06:26:00,64.1,61.4,30.12,SE,144,0.0,0.0,91,0.00,,SCT055,0.00,VWS V14.01,2013-01-15 11:26:00,
2013-01-15 06:31:00,64.1,61.4,30.12,SE,144,0.0,0.0,91,0.00,,SCT055,0.00,VWS V14.01,2013-01-15 11:31:00,
2013-01-15 06:36:00,64.1,61.4,30.12,SE,144,0.0,0.0,91,0.00,,SCT055,0.00,VWS V14.01,2013-01-15 11:36:00,
2013-01-15 06:41:00,64.1,61.4,30.12,SE,144,0.0,0.0,91,0.00,,SCT055,0.00,VWS V14.01,2013-01-15 11:41:00,
2013-01-15 06:46:00,64.1,61.4,30.14,SE,144,0.0,0.0,91,0.00,,SCT055,0.00,VWS V14.01,2013-01-15 11:46:00,
2013-01-15 06:51:00,64.1,61.7,30.13,SE,144,0.0,0.0,92,0.00,,SCT055,0.00,VWS V14.01,2013-01-15 11:51:00,
2013-01-15 06:56:00,64.1,61.7,30.14,SE,144,0.0,0.0,92,0.00,,SCT055,0.00,VWS V14.01,2013-01-15 11:56:00,
2013-01-15 07:01:00,64.2,61.8,30.13,SE,144,0.0,0.0,92,0.00,,,0.00,VWS V14.01,2013-01-15 12:01:00,
2013-01-15 07:06:00,64.2,61.5,30.14,SE,144,0.0,0.0,91,0.00,,,0.00,VWS V14.01,2013-01-15 12:06:00,
2013-01-15 07:11:00,64.2,61.8,30.13,SE,144,0.0,0.0,92,0.00,,,0.00,VWS V14.01,2013-01-15 12:11:00,
2013-01-15 07:16:00,64.2,61.8,30.14,SE,144,0.0,0.0,92,0.00,,,0.00,VWS V14.01,2013-01-15 12:16:00,
2013-01-15 07:21:00,64.2,61.8,30.15,SE,144,0.0,0.0,92,0.00,,,0.00,VWS V14.01,2013-01-15 12:21:00,
2013-01-15 07:26:00,64.2,61.8,30.14,SE,143,0.0,0.0,92,0.00,,,0.00,VWS V14.01,2013-01-15 12:26:00,
2013-01-15 07:31:00,64.3,61.9,30.14,SE,143,0.0,0.0,92,0.00,,,0.00,VWS V14.01,2013-01-15 12:31:00,
2013-01-15 07:36:00,64.3,61.9,30.15,SE,143,0.0,0.0,92,0.00,,,0.00,VWS V14.01,2013-01-15 12:36:00,
2013-01-15 07:41:00,64.4,62.0,30.15,SE,144,0.0,0.0,92,0.00,,,0.00,VWS V14.01,2013-01-15 12:41:00,
2013-01-15 07:46:00,64.4,62.0,30.15,SE,144,0.0,0.0,92,0.00,,,0.00,VWS V14.01,2013-01-15 12:46:00,
2013-01-15 07:51:00,64.5,62.4,30.15,SE,144,0.0,0.0,93,0.00,,,0.00,VWS V14.01,2013-01-15 12:51:00,
2013-01-15 07:56:00,64.6,62.5,30.15,SE,144,0.0,0.0,93,0.00,,,0.00,VWS V14.01,2013-01-15 12:56:00,
2013-01-15 08:01:00,64.7,62.6,30.16,SE,143,0.0,0.0,93,0.00,,CLR,0.00,VWS V14.01,2013-01-15 13:01:00,
2013-01-15 08:06:00,64.8,63.3,30.15,SE,132,0.0,0.0,95,0.00,,CLR,0.00,VWS V14.01,2013-01-15 13:06:00,
2013-01-15 08:11:00,64.9,63.1,30.15,SE,144,0.0,0.0,94,0.00,,CLR,0.00,VWS V14.01,2013-01-15 13:11:00,
2013-01-15 08:16:00,65.0,62.9,30.16,SE,144,0.0,0.0,93,0.00,,CLR,0.00,VWS V14.01,2013-01-15 13:16:00,
2013-01-15 08:21:00,65.2,63.4,30.16,SE,140,0.0,0.0,94,0.00,,CLR,0.00,VWS V14.01,2013-01-15 13:21:00,
2013-01-15 08:26:00,65.4,63.6,30.15,SE,143,0.0,0.0,94,0.00,,CLR,0.00,VWS V14.01,2013-01-15 13:26:00,
2013-01-15 08:31:00,65.9,64.4,30.16,SE,142,0.0,0.0,95,0.00,,CLR,0.00,VWS V14.01,2013-01-15 13:31:00,
2013-01-15 08:36:00,66.4,64.9,30.16,SE,145,0.0,0.0,95,0.00,,CLR,0.00,VWS V14.01,2013-01-15 13:36:00,
2013-01-15 08:41:00,66.8,65.6,30.15,SE,145,0.0,0.0,96,0.00,,CLR,0.00,VWS V14.01,2013-01-15 13:41:00,
2013-01-15 08:46:00,67.1,66.2,30.15,SE,143,0.0,0.0,97,0.00,,CLR,0.00,VWS V14.01,2013-01-15 13:46:00,
2013-01-15 08:51:00,67.7,66.5,30.16,SE,145,0.0,0.0,96,0.00,,CLR,0.00,VWS V14.01,2013-01-15 13:51:00,
2013-01-15 08:56:00,68.3,67.1,30.15,SE,145,0.0,0.0,96,0.00,,CLR,0.00,VWS V14.01,2013-01-15 13:56:00,
2013-01-15 09:01:00,68.7,67.2,30.16,SE,145,0.0,0.0,95,0.00,,CLR,0.00,VWS V14.01,2013-01-15 14:01:00,
2013-01-15 09:06:00,68.9,67.4,30.15,SE,145,0.0,0.0,95,0.00,,CLR,0.00,VWS V14.01,2013-01-15 14:06:00,
2013-01-15 09:11:00,69.3,67.5,30.16,SE,144,0.0,0.0,94,0.00,,CLR,0.00,VWS V14.01,2013-01-15 14:11:00,
2013-01-15 09:16:00,69.7,67.9,30.15,SE,145,0.0,1.0,94,0.00,,CLR,0.00,VWS V14.01,2013-01-15 14:16:00,
2013-01-15 09:21:00,70.1,68.0,30.16,SSE,154,2.0,4.0,93,0.00,,CLR,0.00,VWS V14.01,2013-01-15 14:21:00,
2013-01-15 09:26:00,70.6,68.2,30.16,ESE,113,1.0,4.0,92,0.00,,CLR,0.00,VWS V14.01,2013-01-15 14:26:00,
2013-01-15 09:31:00,71.6,68.2,30.16,SE,130,0.0,7.0,89,0.00,,CLR,0.00,VWS V14.01,2013-01-15 14:31:00,
2013-01-15 09:36:00,72.7,68.3,30.16,ENE,74,4.0,11.0,86,0.00,,CLR,0.00,VWS V14.01,2013-01-15 14:36:00,
2013-01-15 09:41:00,73.9,69.1,30.16,ESE,106,4.0,11.0,85,0.00,,CLR,0.00,VWS V14.01,2013-01-15 14:41:00,
2013-01-15 09:46:00,74.6,69.1,30.16,South,169,3.0,11.0,83,0.00,,CLR,0.00,VWS V14.01,2013-01-15 14:46:00,
2013-01-15 09:51:00,75.2,68.2,30.16,SE,127,5.0,11.0,79,0.00,,CLR,0.00,VWS V14.01,2013-01-15 14:51:00,
2013-01-15 09:56:00,75.7,68.4,30.16,South,187,3.0,11.0,78,0.00,,CLR,0.00,VWS V14.01,2013-01-15 14:56:00,
2013-01-15 10:01:00,76.1,68.4,30.16,East,95,3.0,7.0,77,0.00,,CLR,0.00,VWS V14.01,2013-01-15 15:01:00,
2013-01-15 10:06:00,76.5,68.4,30.15,SE,127,8.0,10.0,76,0.00,,CLR,0.00,VWS V14.01,2013-01-15 15:06:00,
2013-01-15 10:11:00,76.8,68.3,30.16,ESE,122,10.0,11.0,75,0.00,,CLR,0.00,VWS V14.01,2013-01-15 15:11:00,
2013-01-15 10:16:00,77.0,68.9,30.16,ESE,114,6.0,11.0,76,0.00,,CLR,0.00,VWS V14.01,2013-01-15 15:16:00,
2013-01-15 10:21:00,77.1,69.0,30.15,SE,126,4.0,11.0,76,0.00,,CLR,0.00,VWS V14.01,2013-01-15 15:21:00,
2013-01-15 10:26:00,77.3,69.2,30.15,ESE,117,9.0,12.0,76,0.00,,CLR,0.00,VWS V14.01,2013-01-15 15:26:00,
2013-01-15 10:31:00,77.5,69.3,30.15,East,87,5.0,12.0,76,0.00,,CLR,0.00,VWS V14.01,2013-01-15 15:31:00,
2013-01-15 10:36:00,77.5,69.0,30.16,ESE,109,8.0,12.0,75,0.00,,CLR,0.00,VWS V14.01,2013-01-15 15:36:00,
2013-01-15 10:41:00,77.5,68.6,30.16,East,89,9.0,13.0,74,0.00,,CLR,0.00,VWS V14.01,2013-01-15 15:41:00,
2013-01-15 10:46:00,77.6,69.1,30.15,ESE,117,5.0,13.0,75,0.00,,CLR,0.00,VWS V14.01,2013-01-15 15:46:00,
2013-01-15 10:52:00,77.8,69.6,30.15,ESE,112,4.0,13.0,76,0.00,,CLR,0.00,VWS V14.01,2013-01-15 15:52:00,
2013-01-15 10:57:00,77.8,69.2,30.15,SSE,148,6.0,13.0,75,0.00,,CLR,0.00,VWS V14.01,2013-01-15 15:57:00,
2013-01-15 11:02:00,77.9,68.6,30.14,ESE,110,11.0,11.0,73,0.00,,SCT023,0.00,VWS V14.01,2013-01-15 16:02:00,
2013-01-15 11:07:00,77.9,68.6,30.15,ENE,68,4.0,11.0,73,0.00,,SCT023,0.00,VWS V14.01,2013-01-15 16:07:00,
2013-01-15 11:12:00,78.0,68.2,30.15,ESE,119,6.0,14.0,72,0.00,,SCT023,0.00,VWS V14.01,2013-01-15 16:12:00,
2013-01-15 11:17:00,78.2,68.0,30.15,East,98,4.0,14.0,71,0.00,,SCT023,0.00,VWS V14.01,2013-01-15 16:17:00,
2013-01-15 11:22:00,78.3,67.7,30.14,SSE,152,7.0,14.0,70,0.00,,BKN032,0.00,VWS V14.01,2013-01-15 16:22:00,
2013-01-15 11:27:00,78.4,68.2,30.14,SE,136,5.0,14.0,71,0.00,,BKN032,0.00,VWS V14.01,2013-01-15 16:27:00,
2013-01-15 11:32:00,78.6,68.8,30.14,ESE,120,4.0,14.0,72,0.00,,BKN032,0.00,VWS V14.01,2013-01-15 16:32:00,
2013-01-15 11:37:00,78.6,68.4,30.14,ESE,120,10.0,14.0,71,0.00,,BKN032,0.00,VWS V14.01,2013-01-15 16:37:00,
2013-01-15 11:42:00,78.6,68.8,30.13,East,84,6.0,14.0,72,0.00,,BKN032,0.00,VWS V14.01,2013-01-15 16:42:00,
2013-01-15 11:47:00,78.5,68.3,30.14,ESE,109,8.0,14.0,71,0.00,,BKN032,0.00,VWS V14.01,2013-01-15 16:47:00,
2013-01-15 11:52:00,78.3,68.5,30.13,ESE,103,5.0,14.0,72,0.00,,BKN032,0.00,VWS V14.01,2013-01-15 16:52:00,
2013-01-15 11:57:00,78.2,68.4,30.13,ENE,58,4.0,14.0,72,0.00,,BKN032,0.00,VWS V14.01,2013-01-15 16:57:00,
2013-01-15 12:02:00,78.4,69.4,30.14,SE,139,4.0,8.0,74,0.00,,BKN032,0.00,VWS V14.01,2013-01-15 17:02:00,
2013-01-15 12:07:00,78.3,68.1,30.13,ESE,107,4.0,8.0,71,0.00,,BKN032,0.00,VWS V14.01,2013-01-15 17:07:00,
2013-01-15 12:12:00,78.0,67.8,30.13,ESE,104,11.0,11.0,71,0.00,,BKN060,0.00,VWS V14.01,2013-01-15 17:12:00,
2013-01-15 12:17:00,78.2,68.0,30.12,ESE,117,4.0,12.0,71,0.00,,BKN060,0.00,VWS V14.01,2013-01-15 17:17:00,
2013-01-15 12:22:00,78.1,69.1,30.12,ESE,106,5.0,12.0,74,0.00,,BKN060,0.00,VWS V14.01,2013-01-15 17:22:00,
2013-01-15 12:27:00,77.9,69.3,30.11,NE,49,4.0,12.0,75,0.00,,BKN060,0.00,VWS V14.01,2013-01-15 17:27:00,
2013-01-15 12:32:00,77.7,69.2,30.11,East,92,7.0,12.0,75,0.00,,BKN060,0.00,VWS V14.01,2013-01-15 17:32:00,
2013-01-15 12:37:00,77.7,69.2,30.11,SE,142,2.0,12.0,75,0.00,,BKN060,0.00,VWS V14.01,2013-01-15 17:37:00,
2013-01-15 12:42:00,78.0,69.4,30.11,ESE,104,6.0,12.0,75,0.00,,BKN060,0.00,VWS V14.01,2013-01-15 17:42:00,
2013-01-15 12:47:00,78.3,69.3,30.11,ESE,107,8.0,13.0,74,0.00,,BKN060,0.00,VWS V14.01,2013-01-15 17:47:00,
2013-01-15 12:52:00,78.0,69.4,30.10,ESE,102,5.0,13.0,75,0.00,,BKN060,0.00,VWS V14.01,2013-01-15 17:52:00,
2013-01-15 12:57:00,78.0,69.4,30.11,ESE,109,4.0,13.0,75,0.00,,BKN060,0.00,VWS V14.01,2013-01-15 17:57:00,
2013-01-15 13:02:00,78.1,69.5,30.10,NE,45,10.0,13.0,75,0.00,,FEW025,0.00,VWS V14.01,2013-01-15 18:02:00,
2013-01-15 13:07:00,77.7,69.9,30.11,ESE,113,10.0,13.0,77,0.00,,FEW025,0.00,VWS V14.01,2013-01-15 18:07:00,
2013-01-15 13:12:00,77.8,69.6,30.11,East,93,6.0,13.0,76,0.00,,FEW025,0.00,VWS V14.01,2013-01-15 18:12:00,
2013-01-15 13:17:00,78.0,69.8,30.10,ESE,119,7.0,13.0,76,0.00,,FEW025,0.00,VWS V14.01,2013-01-15 18:17:00,
2013-01-15 13:22:00,77.9,69.7,30.10,ENE,69,4.0,13.0,76,0.00,,BKN025,0.00,VWS V14.01,2013-01-15 18:22:00,
2013-01-15 13:27:00,77.9,69.7,30.10,East,98,8.0,13.0,76,0.00,,BKN025,0.00,VWS V14.01,2013-01-15 18:27:00,
2013-01-15 13:32:00,77.8,69.6,30.10,East,85,7.0,13.0,76,0.00,,BKN025,0.00,VWS V14.01,2013-01-15 18:32:00,
2013-01-15 13:37:00,77.9,69.3,30.10,SE,138,9.0,13.0,75,0.00,,BKN025,0.00,VWS V14.01,2013-01-15 18:37:00,
2013-01-15 13:42:00,77.8,69.2,30.10,ENE,60,8.0,13.0,75,0.00,,BKN025,0.00,VWS V14.01,2013-01-15 18:42:00,
2013-01-15 13:47:00,77.6,69.1,30.10,ESE,112,6.0,13.0,75,0.00,,BKN025,0.00,VWS V14.01,2013-01-15 18:47:00,
2013-01-15 13:52:00,77.6,69.4,30.09,ESE,102,8.0,13.0,76,0.00,,BKN025,0.00,VWS V14.01,2013-01-15 18:52:00,
2013-01-15 13:57:00,77.7,69.9,30.09,East,83,6.0,13.0,77,0.00,,BKN025,0.00,VWS V14.01,2013-01-15 18:57:00,
2013-01-15 14:02:00,77.7,69.9,30.09,ESE,102,8.0,10.0,77,0.00,,SCT025,0.00,VWS V14.01,2013-01-15 19:02:00,
2013-01-15 14:07:00,77.4,69.2,30.09,ESE,104,5.0,11.0,76,0.00,,SCT025,0.00,VWS V14.01,2013-01-15 19:07:00,
2013-01-15 14:12:00,77.0,69.2,30.09,ESE,104,9.0,12.0,77,0.00,,SCT025,0.00,VWS V14.01,2013-01-15 19:12:00,
2013-01-15 14:17:00,77.0,69.2,30.09,ESE,103,7.0,17.0,77,0.00,,SCT025,0.00,VWS V14.01,2013-01-15 19:17:00,
2013-01-15 14:22:00,77.0,69.2,30.09,East,92,7.0,17.0,77,0.00,,SCT025,0.00,VWS V14.01,2013-01-15 19:22:00,
2013-01-15 14:27:00,76.9,69.2,30.09,ESE,122,12.0,17.0,77,0.00,,SCT025,0.00,VWS V14.01,2013-01-15 19:27:00,
2013-01-15 14:32:00,76.9,68.8,30.10,ESE,121,13.0,17.0,76,0.00,,SCT025,0.00,VWS V14.01,2013-01-15 19:32:00,
2013-01-15 14:37:00,76.7,68.6,30.09,ESE,123,7.0,17.0,76,0.00,,SCT025,0.00,VWS V14.01,2013-01-15 19:37:00,
2013-01-15 14:42:00,76.6,68.9,30.09,East,91,0.0,17.0,77,0.00,,SCT025,0.00,VWS V14.01,2013-01-15 19:42:00,
2013-01-15 14:47:00,76.5,68.0,30.09,ESE,122,6.0,17.0,75,0.00,,SCT025,0.00,VWS V14.01,2013-01-15 19:47:00,
2013-01-15 14:52:00,76.5,68.4,30.09,ESE,112,5.0,17.0,76,0.00,,SCT025,0.00,VWS V14.01,2013-01-15 19:52:00,
2013-01-15 14:57:00,76.7,68.2,30.09,ESE,121,6.0,17.0,75,0.00,,SCT025,0.00,VWS V14.01,2013-01-15 19:57:00,
2013-01-15 15:02:00,76.8,68.3,30.09,ESE,122,9.0,14.0,75,0.00,,BKN031,0.00,VWS V14.01,2013-01-15 20:02:00,
2013-01-15 15:07:00,76.9,68.0,30.09,ESE,112,7.0,14.0,74,0.00,,BKN031,0.00,VWS V14.01,2013-01-15 20:07:00,
2013-01-15 15:12:00,77.0,68.1,30.09,SE,137,8.0,16.0,74,0.00,,BKN031,0.00,VWS V14.01,2013-01-15 20:12:00,
2013-01-15 15:17:00,77.1,68.2,30.09,SE,138,9.0,16.0,74,0.00,,BKN031,0.00,VWS V14.01,2013-01-15 20:17:00,
2013-01-15 15:22:00,77.1,67.8,30.09,SSE,150,9.0,16.0,73,0.00,,BKN031,0.00,VWS V14.01,2013-01-15 20:22:00,
2013-01-15 15:27:00,76.9,68.0,30.09,ESE,111,8.0,16.0,74,0.00,,BKN031,0.00,VWS V14.01,2013-01-15 20:27:00,
2013-01-15 15:32:00,76.9,68.0,30.10,SE,136,14.0,16.0,74,0.00,,BKN031,0.00,VWS V14.01,2013-01-15 20:32:00,
2013-01-15 15:37:00,76.8,67.9,30.10,SE,124,6.0,16.0,74,0.00,,BKN031,0.00,VWS V14.01,2013-01-15 20:37:00,
2013-01-15 15:42:00,76.7,67.8,30.10,SE,132,8.0,16.0,74,0.00,,BKN031,0.00,VWS V14.01,2013-01-15 20:42:00,
2013-01-15 15:47:00,76.7,67.8,30.10,SSE,151,3.0,16.0,74,0.00,,BKN031,0.00,VWS V14.01,2013-01-15 20:47:00,
2013-01-15 15:52:00,76.5,67.6,30.10,ESE,119,3.0,16.0,74,0.00,,BKN031,0.00,VWS V14.01,2013-01-15 20:52:00,
2013-01-15 15:57:00,76.3,67.8,30.10,SE,131,6.0,16.0,75,0.00,,BKN031,0.00,VWS V14.01,2013-01-15 20:57:00,
2013-01-15 16:02:00,76.2,67.3,30.10,SE,134,3.0,8.0,74,0.00,,BKN060,0.00,VWS V14.01,2013-01-15 21:02:00,
2013-01-15 16:07:00,76.0,67.5,30.10,SE,128,6.0,9.0,75,0.00,,BKN060,0.00,VWS V14.01,2013-01-15 21:07:00,
2013-01-15 16:12:00,75.9,67.4,30.10,ESE,118,2.0,10.0,75,0.00,,BKN060,0.00,VWS V14.01,2013-01-15 21:12:00,
2013-01-15 16:17:00,75.9,67.0,30.11,SE,128,6.0,11.0,74,0.00,,BKN060,0.00,VWS V14.01,2013-01-15 21:17:00,
2013-01-15 16:22:00,75.8,67.3,30.10,ESE,108,6.0,11.0,75,0.00,,BKN060,0.00,VWS V14.01,2013-01-15 21:22:00,
2013-01-15 16:27:00,75.9,67.4,30.11,ESE,108,6.0,11.0,75,0.00,,BKN060,0.00,VWS V14.01,2013-01-15 21:27:00,
2013-01-15 16:32:00,75.9,67.4,30.10,ESE,108,7.0,12.0,75,0.00,,BKN060,0.00,VWS V14.01,2013-01-15 21:32:00,
2013-01-15 16:37:00,75.9,67.0,30.11,SE,133,4.0,12.0,74,0.00,,BKN060,0.00,VWS V14.01,2013-01-15 21:37:00,
2013-01-15 16:42:00,75.9,67.0,30.10,ESE,111,8.0,12.0,74,0.00,,BKN060,0.00,VWS V14.01,2013-01-15 21:42:00,
2013-01-15 16:47:00,75.8,66.9,30.11,ESE,104,9.0,13.0,74,0.00,,BKN060,0.00,VWS V14.01,2013-01-15 21:47:00,
2013-01-15 16:52:00,75.7,66.8,30.11,ESE,114,10.0,13.0,74,0.00,,BKN060,0.00,VWS V14.01,2013-01-15 21:52:00,
2013-01-15 16:57:00,75.6,66.7,30.11,ESE,108,5.0,13.0,74,0.00,,BKN060,0.00,VWS V14.01,2013-01-15 21:57:00,
2013-01-15 17:02:00,75.5,67.0,30.12,ESE,123,6.0,10.0,75,0.00,,FEW023,0.00,VWS V14.01,2013-01-15 22:02:00,
2013-01-15 17:07:00,75.4,67.3,30.11,ESE,118,8.0,12.0,76,0.00,,FEW023,0.00,VWS V14.01,2013-01-15 22:07:00,
2013-01-15 17:12:00,75.3,67.6,30.11,ESE,117,6.0,12.0,77,0.00,,FEW023,0.00,VWS V14.01,2013-01-15 22:12:00,
2013-01-15 17:17:00,75.1,67.0,30.11,ESE,112,6.0,12.0,76,0.00,,FEW023,0.00,VWS V14.01,2013-01-15 22:17:00,
2013-01-15 17:22:00,75.0,66.9,30.11,ESE,111,6.0,12.0,76,0.00,,FEW023,0.00,VWS V14.01,2013-01-15 22:22:00,
2013-01-15 17:27:00,74.9,66.8,30.11,ESE,116,4.0,12.0,76,0.00,,FEW023,0.00,VWS V14.01,2013-01-15 22:27:00,
2013-01-15 17:32:00,74.7,66.6,30.11,SE,124,9.0,12.0,76,0.00,,FEW023,0.00,VWS V14.01,2013-01-15 22:32:00,
2013-01-15 17:37:00,74.5,66.8,30.11,SE,129,3.0,12.0,77,0.00,,FEW023,0.00,VWS V14.01,2013-01-15 22:37:00,
2013-01-15 17:42:00,74.4,67.5,30.11,ESE,114,6.0,12.0,79,0.00,,FEW023,0.00,VWS V14.01,2013-01-15 22:42:00,
2013-01-15 17:47:00,74.2,66.5,30.11,SE,125,3.0,12.0,77,0.00,,FEW023,0.00,VWS V14.01,2013-01-15 22:47:00,
2013-01-15 17:52:00,74.1,66.4,30.11,ESE,123,4.0,12.0,77,0.00,,FEW023,0.00,VWS V14.01,2013-01-15 22:52:00,
2013-01-15 17:57:00,74.0,66.3,30.12,SE,144,2.0,12.0,77,0.00,,FEW023,0.00,VWS V14.01,2013-01-15 22:57:00,
2013-01-15 18:02:00,73.9,66.2,30.12,SE,133,3.0,7.0,77,0.00,,CLR,0.00,VWS V14.01,2013-01-15 23:02:00,
2013-01-15 18:07:00,73.7,66.4,30.12,SE,134,2.0,9.0,78,0.00,,CLR,0.00,VWS V14.01,2013-01-15 23:07:00,
2013-01-15 18:12:00,73.6,66.3,30.11,SE,128,4.0,9.0,78,0.00,,CLR,0.00,VWS V14.01,2013-01-15 23:12:00,
2013-01-15 18:17:00,73.5,66.2,30.11,ESE,118,4.0,9.0,78,0.00,,CLR,0.00,VWS V14.01,2013-01-15 23:17:00,
2013-01-15 18:22:00,73.4,66.1,30.12,ESE,119,3.0,9.0,78,0.00,,CLR,0.00,VWS V14.01,2013-01-15 23:22:00,
2013-01-15 18:27:00,73.3,66.0,30.10,SE,125,0.0,9.0,78,0.00,,CLR,0.00,VWS V14.01,2013-01-15 23:27:00,
2013-01-15 18:32:00,73.2,65.9,30.11,SE,146,6.0,9.0,78,0.00,,CLR,0.00,VWS V14.01,2013-01-15 23:32:00,
2013-01-15 18:37:00,73.2,65.9,30.10,ESE,118,3.0,9.0,78,0.00,,CLR,0.00,VWS V14.01,2013-01-15 23:37:00,
2013-01-15 18:42:00,73.1,65.8,30.11,SE,135,0.0,9.0,78,0.00,,CLR,0.00,VWS V14.01,2013-01-15 23:42:00,
2013-01-15 18:47:00,73.0,65.7,30.12,SE,127,2.0,9.0,78,0.00,,CLR,0.00,VWS V14.01,2013-01-15 23:47:00,
2013-01-15 18:52:00,73.0,66.1,30.11,SE,127,3.0,9.0,79,0.00,,CLR,0.00,VWS V14.01,2013-01-15 23:52:00,
2013-01-15 18:57:00,73.0,66.1,30.11,SE,134,4.0,9.0,79,0.00,,CLR,0.00,VWS V14.01,2013-01-15 23:57:00,
2013-01-15 19:02:00,72.9,66.0,30.11,SE,141,0.0,7.0,79,0.00,,CLR,0.00,VWS V14.01,2013-01-16 00:02:00,
2013-01-15 19:07:00,72.9,66.0,30.11,SE,146,3.0,7.0,79,0.00,,CLR,0.00,VWS V14.01,2013-01-16 00:07:00,
2013-01-15 19:12:00,72.8,65.9,30.11,SE,140,4.0,7.0,79,0.00,,CLR,0.00,VWS V14.01,2013-01-16 00:12:00,
2013-01-15 19:17:00,72.7,66.2,30.11,SE,131,0.0,7.0,80,0.00,,CLR,0.00,VWS V14.01,2013-01-16 00:17:00,
2013-01-15 19:22:00,72.7,65.8,30.11,SSE,148,2.0,7.0,79,0.00,,CLR,0.00,VWS V14.01,2013-01-16 00:22:00,
2013-01-15 19:27:00,72.7,66.2,30.11,ESE,110,0.0,7.0,80,0.00,,CLR,0.00,VWS V14.01,2013-01-16 00:27:00,
2013-01-15 19:32:00,72.6,65.7,30.11,SE,133,0.0,7.0,79,0.00,,CLR,0.00,VWS V14.01,2013-01-16 00:32:00,
2013-01-15 19:37:00,72.6,66.1,30.11,SE,127,0.0,7.0,80,0.00,,CLR,0.00,VWS V14.01,2013-01-16 00:37:00,
2013-01-15 19:42:00,72.5,65.6,30.11,SE,135,5.0,7.0,79,0.00,,CLR,0.00,VWS V14.01,2013-01-16 00:42:00,
2013-01-15 19:47:00,72.4,65.5,30.10,SSE,148,3.0,7.0,79,0.00,,CLR,0.00,VWS V14.01,2013-01-16 00:47:00,
2013-01-15 19:52:00,72.3,65.4,30.11,SE,141,3.0,7.0,79,0.00,,CLR,0.00,VWS V14.01,2013-01-16 00:52:00,
2013-01-15 19:57:00,72.3,65.4,30.11,SE,141,0.0,7.0,79,0.00,,CLR,0.00,VWS V14.01,2013-01-16 00:57:00,
2013-01-15 20:02:00,72.2,65.3,30.11,SE,130,0.0,2.0,79,0.00,,CLR,0.00,VWS V14.01,2013-01-16 01:02:00,
2013-01-15 20:07:00,72.1,65.2,30.10,SE,129,0.0,2.0,79,0.00,,CLR,0.00,VWS V14.01,2013-01-16 01:07:00,
2013-01-15 20:12:00,72.1,65.2,30.10,SE,128,0.0,2.0,79,0.00,,CLR,0.00,VWS V14.01,2013-01-16 01:12:00,
2013-01-15 20:17:00,72.0,65.1,30.10,ESE,120,0.0,5.0,79,0.00,,CLR,0.00,VWS V14.01,2013-01-16 01:17:00,
2013-01-15 20:22:00,71.9,65.0,30.10,ESE,119,0.0,5.0,79,0.00,,CLR,0.00,VWS V14.01,2013-01-16 01:22:00,
2013-01-15 20:27:00,71.9,65.0,30.10,ESE,118,0.0,5.0,79,0.00,,CLR,0.00,VWS V14.01,2013-01-16 01:27:00,
2013-01-15 20:32:00,71.8,65.3,30.10,ESE,117,0.0,5.0,80,0.00,,CLR,0.00,VWS V14.01,2013-01-16 01:32:00,
2013-01-15 20:37:00,71.7,65.2,30.10,ESE,116,0.0,5.0,80,0.00,,CLR,0.00,VWS V14.01,2013-01-16 01:37:00,
2013-01-15 20:42:00,71.7,65.2,30.10,ESE,118,0.0,5.0,80,0.00,,CLR,0.00,VWS V14.01,2013-01-16 01:42:00,
2013-01-15 20:47:00,71.6,64.8,30.09,ESE,118,0.0,5.0,79,0.00,,CLR,0.00,VWS V14.01,2013-01-16 01:47:00,
2013-01-15 20:52:00,71.6,65.1,30.09,ESE,119,0.0,5.0,80,0.00,,CLR,0.00,VWS V14.01,2013-01-16 01:52:00,
2013-01-15 20:57:00,71.5,65.4,30.10,ESE,117,1.0,5.0,81,0.00,,CLR,0.00,VWS V14.01,2013-01-16 01:57:00,
2013-01-15 21:02:00,71.5,65.0,30.09,ESE,117,0.0,0.0,80,0.00,,CLR,0.00,VWS V14.01,2013-01-16 02:02:00,
2013-01-15 21:07:00,71.4,64.9,30.09,ESE,117,0.0,0.0,80,0.00,,CLR,0.00,VWS V14.01,2013-01-16 02:07:00,
2013-01-15 21:12:00,71.3,64.8,30.08,ESE,117,0.0,0.0,80,0.00,,CLR,0.00,VWS V14.01,2013-01-16 02:12:00,
2013-01-15 21:17:00,71.2,65.1,30.09,ESE,115,0.0,0.0,81,0.00,,CLR,0.00,VWS V14.01,2013-01-16 02:17:00,
2013-01-15 21:22:00,71.0,64.5,30.08,ESE,114,0.0,0.0,80,0.00,,CLR,0.00,VWS V14.01,2013-01-16 02:22:00,
2013-01-15 21:27:00,70.9,64.4,30.09,ESE,115,0.0,0.0,80,0.00,,CLR,0.00,VWS V14.01,2013-01-16 02:27:00,
2013-01-15 21:32:00,70.7,64.6,30.09,ESE,114,0.0,0.0,81,0.00,,CLR,0.00,VWS V14.01,2013-01-16 02:32:00,
2013-01-15 21:37:00,70.5,64.4,30.08,ESE,112,0.0,0.0,81,0.00,,CLR,0.00,VWS V14.01,2013-01-16 02:37:00,
2013-01-15 21:42:00,70.4,64.7,30.09,ESE,111,0.0,0.0,82,0.00,,CLR,0.00,VWS V14.01,2013-01-16 02:42:00,
2013-01-15 21:47:00,70.2,64.1,30.08,ESE,115,0.0,0.0,81,0.00,,CLR,0.00,VWS V14.01,2013-01-16 02:47:00,
2013-01-15 21:52:00,70.1,64.0,30.08,ESE,116,0.0,0.0,81,0.00,,CLR,0.00,VWS V14.01,2013-01-16 02:52:00,
2013-01-15 21:57:00,69.9,63.8,30.08,ESE,118,0.0,0.0,81,0.00,,CLR,0.00,VWS V14.01,2013-01-16 02:57:00,
2013-01-15 22:02:00,69.8,63.7,30.08,ESE,116,0.0,0.0,81,0.00,,CLR,0.00,VWS V14.01,2013-01-16 03:02:00,
2013-01-15 22:07:00,69.6,63.5,30.09,ESE,117,0.0,0.0,81,0.00,,CLR,0.00,VWS V14.01,2013-01-16 03:07:00,
2013-01-15 22:12:00,69.4,63.3,30.08,ESE,118,0.0,0.0,81,0.00,,CLR,0.00,VWS V14.01,2013-01-16 03:12:00,
2013-01-15 22:17:00,69.3,63.6,30.08,ESE,118,0.0,0.0,82,0.00,,CLR,0.00,VWS V14.01,2013-01-16 03:17:00,
2013-01-15 22:22:00,69.1,63.0,30.08,ESE,120,0.0,0.0,81,0.00,,CLR,0.00,VWS V14.01,2013-01-16 03:22:00,
2013-01-15 22:27:00,68.9,62.8,30.09,ESE,120,0.0,0.0,81,0.00,,CLR,0.00,VWS V14.01,2013-01-16 03:27:00,
2013-01-15 22:32:00,68.8,63.1,30.08,ESE,119,0.0,0.0,82,0.00,,CLR,0.00,VWS V14.01,2013-01-16 03:32:00,
2013-01-15 22:37:00,68.6,62.9,30.08,ESE,119,0.0,0.0,82,0.00,,CLR,0.00,VWS V14.01,2013-01-16 03:37:00,
2013-01-15 22:42:00,68.4,63.0,30.08,ESE,119,0.0,0.0,83,0.00,,CLR,0.00,VWS V14.01,2013-01-16 03:42:00,
2013-01-15 22:47:00,68.2,62.8,30.08,ESE,119,0.0,0.0,83,0.00,,CLR,0.00,VWS V14.01,2013-01-16 03:47:00,
2013-01-15 22:52:00,68.0,62.7,30.09,ESE,118,0.0,0.0,83,0.00,,CLR,0.00,VWS V14.01,2013-01-16 03:52:00,
2013-01-15 22:57:00,67.8,62.5,30.07,ESE,118,0.0,0.0,83,0.00,,CLR,0.00,VWS V14.01,2013-01-16 03:57:00,
2013-01-15 23:02:00,67.7,62.7,30.08,ESE,117,0.0,0.0,84,0.00,,CLR,0.00,VWS V14.01,2013-01-16 04:02:00,
2013-01-15 23:07:00,67.6,62.3,30.09,ESE,119,0.0,0.0,83,0.00,,CLR,0.00,VWS V14.01,2013-01-16 04:07:00,
2013-01-15 23:12:00,67.5,62.5,30.09,ESE,119,0.0,0.0,84,0.00,,CLR,0.00,VWS V14.01,2013-01-16 04:12:00,
2013-01-15 23:17:00,67.4,62.4,30.08,ESE,119,0.0,0.0,84,0.00,,CLR,0.00,VWS V14.01,2013-01-16 04:17:00,
2013-01-15 23:22:00,67.3,62.3,30.08,ESE,119,0.0,0.0,84,0.00,,CLR,0.00,VWS V14.01,2013-01-16 04:22:00,
2013-01-15 23:27:00,67.1,62.1,30.08,ESE,119,0.0,0.0,84,0.00,,CLR,0.00,VWS V14.01,2013-01-16 04:27:00,
2013-01-15 23:32:00,67.0,62.0,30.08,ESE,118,0.0,0.0,84,0.00,,CLR,0.00,VWS V14.01,2013-01-16 04:32:00,
2013-01-15 23:37:00,67.0,62.3,30.08,ESE,119,0.0,0.0,85,0.00,,CLR,0.00,VWS V14.01,2013-01-16 04:37:00,
2013-01-15 23:42:00,66.8,62.2,30.08,ESE,118,0.0,0.0,85,0.00,,CLR,0.00,VWS V14.01,2013-01-16 04:42:00,
2013-01-15 23:47:00,66.7,61.7,30.08,ESE,120,0.0,0.0,84,0.00,,CLR,0.00,VWS V14.01,2013-01-16 04:47:00,
2013-01-15 23:52:00,66.5,61.9,30.09,ESE,120,0.0,0.0,85,0.00,,CLR,0.00,VWS V14.01,2013-01-16 04:52:00,
2013-01-15 23:57:00,66.4,61.8,30.08,ESE,120,0.0,0.0,85,0.00,,CLR,0.00,VWS V14.01,2013-01-16 04:57:00,